[[{"header":{"parameterUnit":"m.s-1","parameterCategory":1,"la1":30.2991,"la2":30.254,"lo1":-89.0895,"lo2":-89.0444,"dy":0.0017,"dx":0.0017,"nx":28,"ny":28,"refTime":"2025-07-27T09:00:00:Z","depth":0,"parameterNumber":2,"parameterNumberName":"U-component_of_WINDS"},"data":[0,0,0,0,0,0,0,0,0,0,0,0,0,0,0,0,0,0,0,0,0,0,0,0,0,0,0,0,0,0,0,0,0,0,0,0,0,0,0,0,0,0,0,0,0,0,0,0,0,0,0,0,0,0,0,0,0,0,3.6183,3.6184,0,3.6254,3.6254,3.6255,3.6163,3.6159,3.6156,3.6153,3.6228,3.6233,3.6238,0,0,0,0,0,0,0,0,0,0,0,0,0,3.5971,3.5975,3.6183,3.6184,3.6185,3.6253,3.6254,3.6255,3.6163,3.6159,3.6155,3.6151,3.6226,3.6232,3.6239,0,0,0,0,0,0,0,0,0,0,0,0,0,3.6054,3.5976,3.6183,3.6147,3.6144,3.6253,3.6254,3.6256,3.6164,3.6159,3.6154,3.6149,3.6224,3.6232,3.6239,3.6388,0,0,3.6263,3.6266,0,0,0,0,0,0,0,0,3.605,3.6062,3.6151,3.6149,3.6147,3.6194,3.6207,3.63,3.6165,3.6157,3.6153,3.6147,3.6221,3.6229,3.6253,3.6391,3.6395,3.6264,3.6268,3.6272,3.6274,0,0,0,0,0,0,0,3.6044,3.6059,3.6211,3.6153,3.615,3.6128,3.6134,3.6224,3.6216,3.6157,3.615,3.616,3.6219,3.6246,3.6254,3.6396,3.6263,3.627,3.6275,3.6278,3.666,3.6665,0,0,0,0,0,0,3.6042,3.6054,3.6209,3.6213,3.6085,3.6136,3.6143,3.6184,3.6215,3.6215,3.6164,3.6155,3.6235,3.6245,3.6256,3.6433,3.6272,3.6279,3.6283,3.6655,3.6661,3.6667,0,0,0,0,0,0,3.6038,3.6057,3.6206,3.6132,3.6149,3.6145,3.6192,3.6188,3.6215,3.622,3.6219,3.6193,3.6232,3.6246,3.6356,3.6434,3.6282,3.6289,3.6648,3.6657,3.6664,3.6787,0,0,0,0,0,0,3.6032,3.6056,3.6111,3.6134,3.6153,3.6304,3.6197,3.6193,3.6228,3.6217,3.6247,3.6247,3.6229,3.6345,3.6364,3.6442,3.6295,3.6641,3.6652,3.6662,3.6776,3.6799,3.6818,0,0,0,0,0,3.6025,3.6144,3.6115,3.6134,3.6223,3.6308,3.632,3.6295,3.6235,3.6291,3.6295,3.6246,3.6422,3.6357,3.6377,3.6459,3.6636,3.6649,3.6661,3.6767,3.6794,3.6817,0,0,0,0,0,0,3.6131,3.6146,3.6114,3.6243,3.6275,3.6292,3.6363,3.6325,3.6375,3.6363,3.6331,3.6339,3.6457,3.6469,3.6395,3.6605,3.6519,3.6537,3.6593,3.6619,3.664,3.6635,3.6302,0,0,0,0,0,3.617,3.6237,3.6246,3.636,3.6377,3.6368,3.6404,3.6382,3.6414,3.6427,3.6439,3.6473,3.6535,3.6578,3.6636,3.6777,3.6783,3.6844,3.6864,3.6882,3.6897,3.6974,3.7001,3.6708,3.6708,3.6708,0,0,3.625,3.6266,3.6311,3.6381,3.6403,3.6475,3.638,3.6459,3.6512,3.6439,3.6544,3.6554,3.659,3.6717,3.6773,3.673,3.6979,3.6897,3.6911,3.6917,3.699,3.7017,3.7042,3.6717,3.6715,3.6714,0,0,3.6433,3.6452,3.6549,3.6573,3.6607,3.66,3.6623,3.6646,3.665,3.6754,3.6702,3.6765,3.6873,3.6901,3.693,3.7124,3.7081,3.7143,3.7253,3.7328,3.7351,3.7372,3.7442,3.7468,3.7159,3.7159,3.7159,0,3.6529,3.6634,3.6604,3.6687,3.672,3.6657,3.6755,3.678,3.6833,3.6857,3.6808,3.6944,3.6963,3.7096,3.7143,3.7168,3.7195,3.7141,3.735,3.737,3.7389,3.7456,3.7482,3.7166,3.7166,3.7165,3.7164,0,3.6751,3.6824,3.6898,3.695,3.6991,3.7082,3.7066,3.7111,3.7086,3.7085,3.7192,3.7213,3.7275,3.7304,3.7281,3.7435,3.7407,3.7355,3.7269,3.7425,3.7487,3.7513,3.7177,3.7174,3.7172,3.717,0,0,3.7004,3.7037,3.7065,3.7088,3.7121,3.7178,3.7266,3.7325,3.7366,3.7403,3.7477,3.7571,3.7523,3.7555,3.7534,3.76,3.7754,3.7539,3.754,3.758,3.7926,3.7966,3.7996,3.7725,3.773,3.7734,3.7923,0,3.7188,3.734,3.7315,3.7462,3.7531,3.7471,3.7548,3.7578,3.7578,3.7637,3.7638,3.7705,3.7636,3.7655,3.7717,3.7722,3.7823,3.7707,3.7795,3.7799,3.7789,3.8028,3.8071,3.8249,3.7947,3.7951,3.7954,0,3.7424,3.747,3.7624,3.7647,3.7674,3.7744,3.7797,3.7853,3.7885,3.7881,3.7918,3.7884,3.7973,3.7884,3.8007,3.7929,3.7963,3.7971,3.7977,3.7986,3.7887,3.8045,3.8305,3.8333,3.7992,3.7989,3.7986,0,3.7595,3.7696,3.7801,3.7822,3.7851,3.7901,3.7916,3.7943,3.7981,3.8027,3.8051,3.8108,3.8139,3.8184,3.8167,3.8104,3.8294,3.8204,3.8295,3.8295,3.8339,3.8337,3.861,3.8359,3.8358,3.8358,3.8357,0,3.7804,3.7901,3.7878,3.7943,3.805,3.8021,3.8128,3.8136,3.816,3.8227,3.8178,3.8242,3.8215,3.8277,3.8264,3.8369,3.8383,3.8383,3.8379,3.8389,3.8389,3.8412,3.8399,3.8365,3.8363,3.8362,3.8361,0,3.8015,3.8003,3.8114,3.8132,3.8139,3.8217,3.8233,3.8294,3.8291,3.8375,3.8393,3.8389,3.8459,3.8446,3.8524,3.8516,3.8647,3.8627,3.8636,3.8632,3.8724,3.8717,3.9023,3.9062,3.8785,3.8787,3.8789,0,3.815,3.8223,3.8249,3.8289,3.8307,3.8373,3.8411,3.8385,3.8427,3.8469,3.8526,3.8591,3.8643,3.8758,3.8762,3.8822,3.8804,3.8907,3.8813,3.882,3.8807,3.8804,3.8811,3.8926,3.893,3.8932,3.8934,0,3.8391,3.8382,3.8438,3.8492,3.8539,3.858,3.8618,3.8654,3.8631,3.868,3.8751,3.8791,3.887,3.8937,3.8992,3.9008,3.8969,3.8964,3.8988,3.8999,3.9002,3.9003,3.8689,3.8957,3.8955,3.8953,3.8952,3.8951,3.8569,3.8632,3.866,3.8724,3.8749,3.8785,3.8844,3.8847,3.8906,3.8968,3.8949,3.903,3.906,3.9131,3.9153,3.9216,3.9178,3.9213,3.9223,3.9232,3.9244,3.8991,3.9226,3.9226,3.9225,3.9224,3.9224,0,3.881,3.8824,3.8884,3.8937,3.8988,3.8944,3.8983,3.9029,3.9101,3.9132,3.9183,3.9265,3.933,3.9339,3.94,3.9449,3.9433,3.9466,3.9463,3.9468,3.9274,3.9247,3.9479,3.9479,3.9478,3.9478,3.9478,3.9478,3.8941,3.9045,3.9039,3.9155,3.9169,3.9247,3.9273,3.9307,3.9331,3.9425,3.9478,3.9483,3.9506,3.9568,3.9625,3.9626,3.9652,3.9693,3.9687,3.9506,3.9481,3.9457,3.9432,3.9698,3.9698,3.9876,3.9877,3.9879]},{"header":{"parameterUnit":"m.s-1","parameterCategory":1,"la1":30.2991,"la2":30.254,"lo1":-89.0895,"lo2":-89.0444,"dy":0.0017,"dx":0.0017,"nx":28,"ny":28,"refTime":"2025-07-27T09:00:00:Z","depth":0,"parameterNumber":3,"parameterNumberName":"V-component_of_WINDS"},"data":[0,0,0,0,0,0,0,0,0,0,0,0,0,0,0,0,0,0,0,0,0,0,0,0,0,0,0,0,0,0,0,0,0,0,0,0,0,0,0,0,0,0,0,0,0,0,0,0,0,0,0,0,0,0,0,0,0,0,-1.5211,-1.5212,0,-1.5279,-1.528,-1.528,-1.5289,-1.5288,-1.5288,-1.5287,-1.5357,-1.5359,-1.5362,0,0,0,0,0,0,0,0,0,0,0,0,0,-1.5089,-1.5091,-1.5211,-1.5212,-1.5212,-1.5279,-1.528,-1.5281,-1.5289,-1.5288,-1.5288,-1.5287,-1.5356,-1.5359,-1.5362,0,0,0,0,0,0,0,0,0,0,0,0,0,-1.5148,-1.5092,-1.5211,-1.5225,-1.5227,-1.5279,-1.528,-1.5281,-1.5289,-1.5288,-1.5287,-1.5287,-1.5355,-1.5359,-1.5362,-1.5405,0,0,-1.5374,-1.5375,0,0,0,0,0,0,0,0,-1.5144,-1.5152,-1.5222,-1.5224,-1.5226,-1.5275,-1.5262,-1.5322,-1.529,-1.5266,-1.5287,-1.5286,-1.533,-1.5336,-1.5351,-1.5408,-1.5411,-1.5374,-1.5376,-1.5378,-1.5379,0,0,0,0,0,0,0,-1.514,-1.5149,-1.5238,-1.5223,-1.5225,-1.5228,-1.5235,-1.5274,-1.5303,-1.5268,-1.5268,-1.5276,-1.5331,-1.5347,-1.5353,-1.5412,-1.5374,-1.5377,-1.5379,-1.5381,-1.5509,-1.551,0,0,0,0,0,0,-1.5134,-1.5146,-1.5236,-1.524,-1.5182,-1.5231,-1.5239,-1.526,-1.5302,-1.5308,-1.5277,-1.5277,-1.5341,-1.5348,-1.5355,-1.5408,-1.5378,-1.5381,-1.5383,-1.5507,-1.5509,-1.551,0,0,0,0,0,0,-1.5131,-1.5141,-1.5233,-1.5193,-1.5205,-1.5234,-1.5257,-1.5262,-1.5278,-1.5309,-1.5315,-1.5288,-1.5341,-1.535,-1.5393,-1.5411,-1.5383,-1.5386,-1.5506,-1.5508,-1.551,-1.5514,0,0,0,0,0,0,-1.5127,-1.514,-1.5157,-1.5193,-1.5207,-1.5269,-1.5259,-1.5264,-1.5284,-1.5284,-1.5321,-1.5326,-1.5341,-1.5387,-1.5396,-1.5415,-1.5389,-1.5505,-1.5507,-1.5509,-1.5512,-1.5516,-1.5519,0,0,0,0,0,-1.5123,-1.5155,-1.5157,-1.5168,-1.5228,-1.527,-1.5278,-1.5294,-1.5286,-1.5302,-1.5323,-1.5325,-1.5407,-1.5391,-1.5402,-1.5422,-1.5503,-1.5506,-1.5509,-1.5511,-1.5515,-1.5519,0,0,0,0,0,0,-1.5119,-1.516,-1.5163,-1.5208,-1.5236,-1.5271,-1.5293,-1.5298,-1.5328,-1.5326,-1.5345,-1.5353,-1.5396,-1.5413,-1.5395,-1.5466,-1.5455,-1.5459,-1.5453,-1.5457,-1.546,-1.5455,-1.5392,0,0,0,0,0,-1.5124,-1.5155,-1.5188,-1.5225,-1.5239,-1.5263,-1.5282,-1.5292,-1.5322,-1.5333,-1.5357,-1.5385,-1.5417,-1.5438,-1.547,-1.5515,-1.5524,-1.5535,-1.5538,-1.554,-1.5544,-1.557,-1.5575,-1.5519,-1.5519,-1.5519,0,0,-1.5133,-1.5159,-1.5177,-1.5225,-1.5247,-1.5279,-1.5273,-1.5307,-1.533,-1.5338,-1.538,-1.5399,-1.5432,-1.5476,-1.5497,-1.5492,-1.5562,-1.5543,-1.5545,-1.5548,-1.5573,-1.5579,-1.5583,-1.5521,-1.552,-1.552,0,0,-1.5166,-1.5189,-1.5222,-1.5245,-1.5279,-1.5296,-1.5304,-1.5339,-1.5352,-1.5395,-1.5401,-1.543,-1.5485,-1.5509,-1.5528,-1.5571,-1.5575,-1.5581,-1.5597,-1.5622,-1.5627,-1.5631,-1.5647,-1.5652,-1.5585,-1.5585,-1.5585,0,-1.5174,-1.5222,-1.5239,-1.5272,-1.5293,-1.5302,-1.5336,-1.5358,-1.54,-1.5415,-1.5409,-1.5479,-1.5501,-1.5552,-1.5563,-1.5578,-1.5588,-1.5577,-1.5625,-1.5629,-1.5633,-1.5648,-1.5654,-1.5585,-1.5585,-1.5585,-1.5585,0,-1.5229,-1.5262,-1.5285,-1.5326,-1.535,-1.5383,-1.5406,-1.5428,-1.5436,-1.5453,-1.5497,-1.5525,-1.5562,-1.5575,-1.5583,-1.5627,-1.5623,-1.5621,-1.561,-1.5639,-1.5653,-1.5659,-1.5586,-1.5586,-1.5586,-1.5586,0,0,-1.5261,-1.5312,-1.532,-1.534,-1.5379,-1.5405,-1.5439,-1.5476,-1.5495,-1.5524,-1.5554,-1.5601,-1.5599,-1.5621,-1.5632,-1.5654,-1.5688,-1.5649,-1.565,-1.5656,-1.5738,-1.574,-1.5746,-1.569,-1.5692,-1.5693,-1.5736,0,-1.5299,-1.536,-1.5377,-1.5429,-1.546,-1.547,-1.55,-1.5528,-1.5545,-1.5574,-1.5593,-1.5627,-1.5622,-1.5635,-1.5658,-1.5679,-1.5704,-1.5676,-1.5718,-1.572,-1.571,-1.5754,-1.5755,-1.5795,-1.5741,-1.5742,-1.5743,0,-1.5351,-1.5382,-1.5437,-1.5473,-1.5487,-1.5514,-1.5549,-1.5577,-1.5609,-1.562,-1.5645,-1.5654,-1.5691,-1.5678,-1.5729,-1.571,-1.5728,-1.5741,-1.5743,-1.5748,-1.5733,-1.576,-1.5808,-1.5813,-1.5752,-1.5752,-1.5751,0,-1.5369,-1.5425,-1.5465,-1.5481,-1.5524,-1.5543,-1.5561,-1.5592,-1.5614,-1.5645,-1.5659,-1.5694,-1.5714,-1.5741,-1.576,-1.5749,-1.581,-1.5799,-1.582,-1.582,-1.5832,-1.5831,-1.5884,-1.5844,-1.5844,-1.5844,-1.5844,0,-1.541,-1.5443,-1.5474,-1.5499,-1.5537,-1.5556,-1.5593,-1.5612,-1.564,-1.5669,-1.568,-1.5707,-1.573,-1.5761,-1.5776,-1.5816,-1.5825,-1.5835,-1.5839,-1.5834,-1.5833,-1.5847,-1.5844,-1.5846,-1.5845,-1.5845,-1.5845,0,-1.5436,-1.5458,-1.5503,-1.554,-1.555,-1.5577,-1.5609,-1.5633,-1.5651,-1.5688,-1.5698,-1.5726,-1.5763,-1.5785,-1.5831,-1.5841,-1.5886,-1.5888,-1.5875,-1.5877,-1.5898,-1.5895,-1.5961,-1.597,-1.5924,-1.5924,-1.5925,0,-1.546,-1.5486,-1.5527,-1.5547,-1.5566,-1.5598,-1.5621,-1.5641,-1.5664,-1.5702,-1.5723,-1.576,-1.5791,-1.5849,-1.5874,-1.5909,-1.5913,-1.5933,-1.5918,-1.5913,-1.5914,-1.5912,-1.5915,-1.5936,-1.5936,-1.5936,-1.5937,0,-1.5501,-1.5511,-1.5543,-1.5578,-1.5605,-1.5634,-1.5662,-1.5678,-1.5704,-1.5729,-1.5767,-1.579,-1.5838,-1.5875,-1.5913,-1.5933,-1.5939,-1.5941,-1.5948,-1.5944,-1.5935,-1.5941,-1.5882,-1.594,-1.5939,-1.5939,-1.5939,-1.5939,-1.5528,-1.5552,-1.5584,-1.5619,-1.5643,-1.567,-1.5695,-1.5717,-1.5748,-1.5789,-1.5799,-1.5838,-1.5871,-1.5922,-1.5943,-1.5975,-1.5971,-1.5981,-1.5984,-1.5986,-1.5987,-1.593,-1.5982,-1.5982,-1.5981,-1.5981,-1.5981,0,-1.557,-1.5591,-1.5623,-1.5663,-1.5691,-1.5695,-1.5727,-1.575,-1.5785,-1.5814,-1.5845,-1.5888,-1.5925,-1.5953,-1.599,-1.601,-1.6014,-1.602,-1.6018,-1.6023,-1.5987,-1.5978,-1.6016,-1.6016,-1.6016,-1.6016,-1.6016,-1.6016,-1.5594,-1.5635,-1.5649,-1.5702,-1.5724,-1.5762,-1.5781,-1.5806,-1.583,-1.5878,-1.5908,-1.5926,-1.5956,-1.5996,-1.6029,-1.6037,-1.605,-1.6055,-1.6063,-1.6029,-1.6025,-1.6022,-1.6013,-1.6058,-1.6058,-1.6096,-1.6096,-1.6096]}]]